[[{"header":{"parameterUnit":"m.s-1","parameterCategory":2,"la1":30.2992,"la2":30.254,"lo1":-89.0895,"lo2":-89.0443,"dy":0.0025,"dx":0.0025,"nx":19,"ny":19,"refTime":"2026-05-05T21:00:00:Z","depth":"0","parameterNumber":2,"parameterNumberName":"U-component_of_CURRENTS"},"data":[0,0,0,-0.2077,-0.2078,-0.2094,-0.2094,-0.2075,-0.2075,0,0,0,0,0,0,0,0,0,0,0,-0.2062,-0.2062,-0.2077,-0.2078,-0.2094,-0.2094,-0.2075,-0.2075,0,0,0,0,0,0,0,0,0,0,0,-0.2062,-0.2062,-0.2062,-0.2078,-0.2094,-0.2094,-0.2075,-0.2072,0,0,0,0,0,0,0,0,0,0,-0.206,-0.205,-0.2062,-0.2062,-0.2078,-0.2094,-0.2094,-0.2072,-0.2072,-0.2058,0,-0.2059,0,-0.2072,-0.2073,-0.2073,0,0,0,-0.2072,-0.205,-0.2061,-0.2062,-0.2078,-0.2094,-0.2085,-0.2072,-0.2072,-0.2058,-0.2059,-0.2058,-0.2072,-0.2073,-0.2073,-0.2084,-0.2084,0,0,-0.2071,-0.2059,-0.2061,-0.2061,-0.2079,-0.2085,-0.2086,-0.2072,-0.2066,-0.2059,-0.2058,-0.2071,-0.2073,-0.2073,-0.2083,-0.2084,0,0,0,-0.2073,-0.2058,-0.2069,-0.2061,-0.207,-0.2085,-0.2086,-0.2066,-0.2072,-0.2058,-0.2071,-0.2073,-0.2073,-0.2083,-0.2083,-0.216,0,0,0,-0.2072,-0.206,-0.2069,-0.2061,-0.2071,-0.2074,-0.208,-0.2072,-0.2072,-0.2071,-0.2073,-0.2072,-0.2083,-0.2083,-0.2158,-0.2195,0,0,0,-0.2062,-0.2059,-0.2061,-0.206,-0.2072,-0.2074,-0.2079,-0.2073,-0.208,-0.2073,-0.2072,-0.2082,-0.2083,-0.2155,-0.219,-0.2068,0,0,0,-0.2049,-0.2062,-0.206,-0.2081,-0.2072,-0.2105,-0.2079,-0.2095,-0.2094,-0.2073,-0.2083,-0.2083,-0.2154,-0.2187,-0.2068,-0.1839,-0.1822,0,0,-0.2065,-0.2063,-0.208,-0.2079,-0.2119,-0.2103,-0.2144,-0.2128,-0.2098,-0.2082,-0.2083,-0.2159,-0.219,-0.2068,-0.1881,-0.1861,0,0,0,-0.2085,-0.2092,-0.2105,-0.2124,-0.2145,-0.2177,-0.2159,-0.216,-0.216,-0.2102,-0.2151,-0.2168,-0.2088,-0.195,-0.1936,-0.1838,-0.2087,-0.2087,-0.2087,-0.2078,-0.2104,-0.2137,-0.2169,-0.2194,-0.2223,-0.225,-0.2244,-0.2199,-0.2214,-0.2226,-0.2185,-0.2044,-0.2029,-0.1935,-0.2217,-0.2217,-0.2218,-0.2218,-0.2095,-0.2115,-0.216,-0.2202,-0.2249,-0.2285,-0.2331,-0.2325,-0.2292,-0.2295,-0.2211,-0.2035,-0.2016,-0.1922,-0.2223,-0.2222,-0.2221,-0.2221,-0.222,-0.2069,-0.2091,-0.2125,-0.221,-0.229,-0.2343,-0.2342,-0.2388,-0.2339,-0.2325,-0.2014,-0.201,-0.1919,-0.221,-0.221,-0.221,-0.2209,-0.2209,-0.2209,-0.203,-0.2074,-0.2122,-0.2236,-0.226,-0.2321,-0.2348,-0.2271,-0.2118,-0.2065,-0.206,-0.1882,-0.218,-0.2171,-0.2204,-0.2205,-0.2205,-0.2206,-0.2206,-0.2016,-0.2066,-0.2067,-0.2094,-0.2134,-0.2026,-0.214,-0.1914,-0.1839,-0.1706,-0.1612,-0.1879,-0.1799,-0.1808,-0.1788,-0.1719,-0.1719,-0.1719,-0.1719,-0.2028,-0.2053,-0.1944,-0.1854,-0.1831,-0.182,-0.1534,-0.1484,-0.1386,-0.1293,-0.1365,-0.1345,-0.1369,-0.1267,-0.1288,-0.1258,-0.1056,-0.1056,-0.1055,-0.2061,-0.1967,-0.1804,-0.1658,-0.1583,-0.1469,-0.1171,-0.1012,-0.0943,-0.1031,-0.1282,-0.131,-0.1294,-0.1339,-0.1193,-0.123,-0.1186,0,0]},{"header":{"parameterUnit":"m.s-1","parameterCategory":2,"la1":30.2992,"la2":30.254,"lo1":-89.0895,"lo2":-89.0443,"dy":0.0025,"dx":0.0025,"nx":19,"ny":19,"refTime":"2026-05-05T21:00:00:Z","depth":"0","parameterNumber":3,"parameterNumberName":"V-component_of_CURRENTS"},"data":[0,0,0,-0.0355,-0.0354,-0.029,-0.029,-0.0165,-0.0164,0,0,0,0,0,0,0,0,0,0,0,-0.0378,-0.0378,-0.0355,-0.0354,-0.029,-0.029,-0.0165,-0.0164,0,0,0,0,0,0,0,0,0,0,0,-0.0378,-0.0378,-0.0378,-0.0354,-0.0291,-0.029,-0.0165,-0.0221,0,0,0,0,0,0,0,0,0,0,-0.0287,-0.0323,-0.0378,-0.0378,-0.0354,-0.0291,-0.029,-0.0224,-0.0218,-0.0185,0,-0.0185,0,-0.0175,-0.0156,-0.0155,0,0,0,-0.0342,-0.0329,-0.031,-0.0378,-0.0353,-0.0291,-0.0316,-0.0221,-0.0213,-0.0176,-0.0183,-0.0179,-0.0173,-0.0155,-0.0154,-0.0057,-0.0056,0,0,-0.0345,-0.0363,-0.0315,-0.0306,-0.0348,-0.0318,-0.0314,-0.0217,-0.0214,-0.0183,-0.0176,-0.0171,-0.0154,-0.0153,-0.0057,-0.0056,0,0,0,-0.0364,-0.0366,-0.035,-0.0311,-0.0304,-0.0316,-0.0312,-0.0218,-0.0213,-0.0174,-0.0169,-0.0153,-0.0152,-0.0057,-0.0057,-0.0104,0,0,0,-0.0365,-0.0377,-0.0352,-0.0361,-0.0307,-0.0267,-0.0315,-0.0219,-0.0208,-0.017,-0.0153,-0.0151,-0.0057,-0.0057,-0.0103,-0.0059,0,0,0,-0.0379,-0.0378,-0.0375,-0.0362,-0.034,-0.0269,-0.0258,-0.0217,-0.0205,-0.0155,-0.015,-0.0057,-0.0057,-0.0102,-0.0059,0.0131,0,0,0,-0.0394,-0.0419,-0.0375,-0.0399,-0.0341,-0.0324,-0.0258,-0.0235,-0.0201,-0.0153,-0.0057,-0.0057,-0.0102,-0.006,0.0127,0.0194,0.0215,0,0,-0.044,-0.0425,-0.044,-0.04,-0.041,-0.0331,-0.0311,-0.0237,-0.0177,-0.0084,-0.0082,-0.0103,-0.0059,0.013,0.0213,0.0234,0,0,0,-0.0464,-0.0473,-0.047,-0.0461,-0.0427,-0.0358,-0.0297,-0.0236,-0.0144,-0.0156,-0.0083,-0.0051,0.007,0.0102,0.0118,0.0218,-0.0055,-0.0055,-0.0055,-0.054,-0.0521,-0.0538,-0.0503,-0.0476,-0.0377,-0.0291,-0.0185,-0.0173,-0.0129,-0.0079,0.0054,0.0079,0.0095,0.0193,-0.0098,-0.0098,-0.0098,-0.0098,-0.0607,-0.0617,-0.057,-0.0582,-0.0495,-0.0452,-0.0271,-0.0213,-0.0011,-0.0074,0.0046,0.0062,0.0111,0.0209,-0.0101,-0.01,-0.01,-0.01,-0.01,-0.0658,-0.0659,-0.0655,-0.063,-0.055,-0.0447,-0.0218,-0.0113,0.0002,0.0095,0.0255,0.0256,0.035,0.0174,0.0175,0.0176,0.0176,0.0177,0.0178,-0.0712,-0.0704,-0.0647,-0.0651,-0.0547,-0.0394,-0.0151,0.0028,0.023,0.0288,0.029,0.0413,0.0142,0.0139,0.0193,0.019,0.0188,0.0187,0.0186,-0.0767,-0.0735,-0.0604,-0.0509,-0.0286,-0.0059,0.0078,0.0373,0.0524,0.0641,0.0674,0.0442,0.0516,0.0502,0.0511,0.066,0.066,0.066,0.066,-0.0764,-0.0766,-0.0436,-0.0183,0.0022,0.0174,0.0526,0.067,0.0829,0.0906,0.0923,0.081,0.0786,0.0869,0.0847,0.0861,0.1095,0.1096,0.1096,-0.0748,-0.0609,-0.0329,-0.0064,0.0214,0.0443,0.0758,0.0965,0.107,0.1121,0.1059,0.104,0.087,0.0826,0.0943,0.0903,0.092,0,0]}],[{"header":{"parameterUnit":"m.s-1","parameterCategory":2,"la1":30.2992,"la2":30.254,"lo1":-89.0895,"lo2":-89.0443,"dy":0.0025,"dx":0.0025,"nx":19,"ny":19,"refTime":"2026-05-05T21:00:00:Z","depth":"2","parameterNumber":2,"parameterNumberName":"U-component_of_CURRENTS"},"data":[0,0,0,-0.2016,-0.2016,-0.2037,-0.2037,-0.2018,-0.2018,0,0,0,0,0,0,0,0,0,0,0,-0.2,-0.2,-0.2016,-0.2016,-0.2037,-0.2037,-0.2018,-0.2018,0,0,0,0,0,0,0,0,0,0,0,-0.2,-0.2,-0.2,-0.2016,-0.2037,-0.2037,-0.2018,-0.2013,0,0,0,0,0,0,0,0,0,0,-0.1998,-0.1989,-0.2,-0.2,-0.2017,-0.2037,-0.2037,-0.2013,-0.2013,-0.1998,0,-0.2,0,-0.2014,-0.2016,-0.2016,0,0,0,-0.2011,-0.1989,-0.2,-0.2,-0.2017,-0.2037,-0.2026,-0.2013,-0.2014,-0.1998,-0.2,-0.2,-0.2013,-0.2016,-0.2016,-0.2024,-0.2024,0,0,-0.201,-0.1998,-0.2,-0.2,-0.2019,-0.2025,-0.2027,-0.2014,-0.2008,-0.2,-0.2,-0.2013,-0.2016,-0.2016,-0.2024,-0.2024,0,0,0,-0.201,-0.1997,-0.2009,-0.2,-0.201,-0.2026,-0.2028,-0.2009,-0.2014,-0.2,-0.2013,-0.2016,-0.2016,-0.2023,-0.2024,-0.209,0,0,0,-0.2009,-0.1998,-0.2008,-0.2001,-0.2011,-0.2016,-0.2023,-0.2015,-0.2015,-0.2013,-0.2016,-0.2015,-0.2023,-0.2024,-0.2088,-0.2128,0,0,0,-0.2,-0.1997,-0.2,-0.2,-0.2013,-0.2016,-0.2021,-0.2015,-0.2023,-0.2016,-0.2015,-0.2023,-0.2023,-0.2086,-0.2123,-0.2028,0,0,0,-0.1986,-0.2,-0.1999,-0.202,-0.2013,-0.2046,-0.2021,-0.2038,-0.2037,-0.2016,-0.2023,-0.2024,-0.2085,-0.2121,-0.2027,-0.1818,-0.1803,0,0,-0.2002,-0.2001,-0.2017,-0.2018,-0.2057,-0.2043,-0.2082,-0.2068,-0.204,-0.2022,-0.2023,-0.2089,-0.2123,-0.2028,-0.1857,-0.1841,0,0,0,-0.2022,-0.2029,-0.2042,-0.2061,-0.2082,-0.211,-0.2097,-0.2097,-0.2094,-0.2044,-0.2084,-0.2103,-0.204,-0.1913,-0.1901,-0.2027,-0.2027,-0.2027,-0.2027,-0.2016,-0.2041,-0.207,-0.2101,-0.2125,-0.2152,-0.2176,-0.2169,-0.213,-0.2142,-0.2153,-0.2127,-0.1996,-0.1984,-0.2142,-0.2142,-0.2143,-0.2143,-0.2143,-0.2032,-0.2046,-0.2088,-0.2125,-0.2166,-0.22,-0.2244,-0.2239,-0.2219,-0.2216,-0.2149,-0.1988,-0.1973,-0.2148,-0.2147,-0.2146,-0.2146,-0.2145,-0.2145,-0.2006,-0.2021,-0.2054,-0.2125,-0.2194,-0.2246,-0.2259,-0.2301,-0.2263,-0.2256,-0.1986,-0.1982,-0.2125,-0.2162,-0.2162,-0.2161,-0.2161,-0.2161,-0.2161,-0.1962,-0.2002,-0.2043,-0.2137,-0.2167,-0.223,-0.2268,-0.221,-0.2079,-0.2036,-0.2032,-0.2131,-0.2131,-0.2123,-0.2158,-0.2158,-0.2159,-0.2159,-0.2159,-0.1934,-0.1973,-0.1994,-0.2025,-0.2095,-0.206,-0.2119,-0.1924,-0.1849,-0.1728,-0.1868,-0.1876,-0.1809,-0.1816,-0.1798,-0.1747,-0.1747,-0.1747,-0.1747,-0.192,-0.1944,-0.1909,-0.1894,-0.1908,-0.1947,-0.1699,-0.1551,-0.151,-0.147,-0.1483,-0.146,-0.1481,-0.1396,-0.1413,-0.1388,-0.123,-0.1229,-0.1228,-0.1924,-0.1881,-0.1806,-0.1776,-0.1771,-0.1747,-0.1486,-0.1133,-0.0984,-0.1216,-0.1473,-0.1697,-0.1696,-0.1717,-0.1614,-0.163,-0.16,0,0]},{"header":{"parameterUnit":"m.s-1","parameterCategory":2,"la1":30.2992,"la2":30.254,"lo1":-89.0895,"lo2":-89.0443,"dy":0.0025,"dx":0.0025,"nx":19,"ny":19,"refTime":"2026-05-05T21:00:00:Z","depth":"2","parameterNumber":3,"parameterNumberName":"V-component_of_CURRENTS"},"data":[0,0,0,-0.0418,-0.0417,-0.0357,-0.0357,-0.0242,-0.0241,0,0,0,0,0,0,0,0,0,0,0,-0.0439,-0.0439,-0.0418,-0.0417,-0.0357,-0.0357,-0.0242,-0.0241,0,0,0,0,0,0,0,0,0,0,0,-0.0439,-0.0439,-0.0439,-0.0416,-0.0357,-0.0357,-0.0242,-0.0294,0,0,0,0,0,0,0,0,0,0,-0.0356,-0.0389,-0.0439,-0.0439,-0.0416,-0.0357,-0.0357,-0.0297,-0.0291,-0.0261,0,-0.026,0,-0.0251,-0.0233,-0.0233,0,0,0,-0.0406,-0.0394,-0.0376,-0.0439,-0.0416,-0.0358,-0.0381,-0.0294,-0.0287,-0.0253,-0.0259,-0.0255,-0.0249,-0.0233,-0.0232,-0.0139,-0.0138,0,0,-0.0409,-0.0426,-0.0381,-0.0372,-0.041,-0.0383,-0.0379,-0.029,-0.0287,-0.0258,-0.0252,-0.0247,-0.0232,-0.0231,-0.0139,-0.0138,0,0,0,-0.0426,-0.0428,-0.0413,-0.0377,-0.0371,-0.0381,-0.0377,-0.0291,-0.0286,-0.0251,-0.0246,-0.0231,-0.023,-0.0139,-0.0139,-0.0203,0,0,0,-0.0427,-0.0439,-0.0415,-0.0424,-0.0373,-0.0337,-0.0381,-0.0292,-0.0282,-0.0246,-0.0231,-0.0229,-0.0139,-0.0139,-0.0201,-0.019,0,0,0,-0.044,-0.044,-0.0436,-0.0425,-0.0404,-0.0338,-0.0327,-0.029,-0.0279,-0.0233,-0.0228,-0.0139,-0.0139,-0.02,-0.0189,-0.0052,0,0,0,-0.0455,-0.0474,-0.0437,-0.0454,-0.0404,-0.0385,-0.0328,-0.0304,-0.0272,-0.0231,-0.0139,-0.0139,-0.02,-0.0188,-0.0053,-0.0101,-0.0097,0,0,-0.0491,-0.0478,-0.0489,-0.0455,-0.0463,-0.0392,-0.0377,-0.0311,-0.025,-0.0164,-0.0162,-0.0202,-0.0189,-0.0052,-0.0077,-0.0073,0,0,0,-0.0509,-0.0519,-0.0514,-0.0507,-0.0474,-0.0429,-0.0364,-0.0312,-0.0233,-0.0229,-0.0175,-0.0163,-0.0075,-0.0107,-0.0105,-0.0137,-0.0137,-0.0137,-0.0137,-0.0577,-0.056,-0.058,-0.0552,-0.0529,-0.045,-0.039,-0.0299,-0.0262,-0.0227,-0.0198,-0.0112,-0.0153,-0.015,-0.0197,-0.0197,-0.0198,-0.0198,-0.0198,-0.0643,-0.0661,-0.0625,-0.0639,-0.0578,-0.0546,-0.0404,-0.0349,-0.0187,-0.0211,-0.0122,-0.0154,-0.015,-0.0202,-0.0202,-0.0201,-0.02,-0.02,-0.02,-0.0696,-0.0706,-0.0703,-0.0706,-0.0661,-0.0579,-0.0429,-0.0325,-0.0208,-0.0144,-0.0062,-0.0062,-0.009,-0.007,-0.0069,-0.0069,-0.0068,-0.0068,-0.0067,-0.076,-0.0756,-0.0759,-0.0761,-0.0707,-0.061,-0.0415,-0.0287,-0.014,-0.0082,-0.0081,-0.0065,-0.0069,-0.0077,-0.0058,-0.006,-0.0061,-0.0062,-0.0062,-0.0845,-0.0833,-0.0827,-0.0785,-0.0685,-0.0672,-0.0426,-0.0239,-0.005,0.001,-0.0007,-0.0011,0.0044,0.004,0.0037,0.0086,0.0086,0.0086,0.0086,-0.09,-0.09,-0.0883,-0.0812,-0.0739,-0.0685,-0.0609,-0.039,-0.0134,-0.0048,-0.0043,-0.0158,-0.0161,-0.0121,-0.0122,-0.0129,-0.0123,-0.0124,-0.0124,-0.0957,-0.0929,-0.0951,-0.0904,-0.0799,-0.08,-0.0901,-0.0625,-0.0227,-0.0135,-0.0103,0.0077,-0.0084,-0.0091,-0.0024,-0.0028,-0.0036,0,0]}],[{"header":{"parameterUnit":"m.s-1","parameterCategory":2,"la1":30.2992,"la2":30.254,"lo1":-89.0895,"lo2":-89.0443,"dy":0.0025,"dx":0.0025,"nx":19,"ny":19,"refTime":"2026-05-05T21:00:00:Z","depth":"4","parameterNumber":2,"parameterNumberName":"U-component_of_CURRENTS"},"data":[0,0,0,-0.1573,-0.1576,-0.1689,-0.1689,-0.1729,-0.1729,0,0,0,0,0,0,0,0,0,0,0,-0.1536,-0.1536,-0.1573,-0.1576,-0.1689,-0.1689,-0.1729,-0.1729,0,0,0,0,0,0,0,0,0,0,0,-0.1535,-0.1536,-0.1537,-0.1577,-0.1689,-0.1689,-0.1729,-0.1669,0,0,0,0,0,0,0,0,0,0,-0.1573,-0.1557,-0.1536,-0.1537,-0.1577,-0.1689,-0.1689,-0.1668,-0.1673,-0.1649,0,-0.1675,0,-0.1702,-0.173,-0.173,0,0,0,-0.1574,-0.1553,-0.158,-0.1538,-0.1578,-0.1688,-0.1637,-0.1671,-0.1677,-0.1655,-0.1676,-0.1679,-0.1702,-0.173,-0.173,-0.1763,-0.1763,0,0,-0.1568,-0.1555,-0.1576,-0.1584,-0.1617,-0.1634,-0.1641,-0.1676,-0.1685,-0.1676,-0.168,-0.1703,-0.173,-0.173,-0.1763,-0.1763,0,0,0,-0.1551,-0.1551,-0.158,-0.1581,-0.161,-0.1637,-0.1645,-0.1684,-0.1693,-0.1681,-0.1703,-0.173,-0.173,-0.1762,-0.1763,-0.1775,0,0,0,-0.1547,-0.1542,-0.1577,-0.157,-0.161,-0.1664,-0.1652,-0.1691,-0.1696,-0.1703,-0.173,-0.173,-0.1762,-0.1762,-0.1774,-0.1744,0,0,0,-0.1529,-0.154,-0.1555,-0.1569,-0.1619,-0.1664,-0.1677,-0.1694,-0.1709,-0.173,-0.173,-0.1762,-0.1762,-0.1773,-0.1744,-0.1664,0,0,0,-0.1507,-0.1533,-0.1555,-0.1593,-0.1618,-0.168,-0.1677,-0.1727,-0.1749,-0.173,-0.1762,-0.1763,-0.1773,-0.1744,-0.1666,-0.1446,0,0,0,-0.1523,-0.1535,-0.1557,-0.1579,-0.1636,-0.1664,-0.172,-0.1749,-0.1747,-0.1741,-0.1743,-0.1774,-0.1744,-0.1665,-0.1493,0,0,0,0,-0.155,-0.1567,-0.1588,-0.1631,-0.1676,-0.1715,-0.1758,-0.1768,-0.1786,-0.1765,-0.1786,-0.1765,-0.1715,-0.1592,-0.1766,-0.1766,-0.1766,-0.1766,-0.1766,-0.154,-0.1573,-0.161,-0.1658,-0.1698,-0.1757,-0.1775,-0.1792,-0.1804,-0.1817,-0.1786,-0.1746,-0.1622,-0.1816,-0.1816,-0.1816,-0.1816,-0.1816,-0.1816,-0.1546,-0.1553,-0.1614,-0.1663,-0.1711,-0.1758,-0.1788,-0.1803,-0.1773,-0.181,-0.176,-0.163,-0.1818,-0.1818,-0.1817,-0.1817,-0.1817,-0.1817,-0.1817,-0.151,-0.1514,-0.1573,-0.1625,-0.1673,-0.1729,-0.1669,-0.1718,-0.1751,-0.1725,-0.1535,-0.1717,-0.1698,-0.1687,-0.1686,-0.1686,-0.1686,-0.1685,-0.1685,-0.1428,-0.1486,-0.1474,-0.1563,-0.1552,-0.1554,-0.1575,-0.1527,-0.1577,-0.1488,-0.1698,-0.17,-0.1704,-0.1689,-0.1678,-0.1679,-0.168,-0.1681,-0.1681,-0.1307,-0.1349,-0.1296,-0.1285,-0.1272,-0.1275,-0.1343,-0.1262,-0.1187,-0.113,-0.1343,-0.1361,-0.131,-0.1323,-0.1293,-0.1164,-0.1161,-0.1158,0,-0.1173,-0.1216,-0.1073,-0.0989,-0.0934,-0.1054,-0.0921,-0.0932,-0.1002,-0.0993,-0.1179,-0.1422,-0.1434,-0.1383,-0.1389,-0.1355,0,0,0,-0.1018,-0.1006,-0.0843,-0.0833,-0.0761,-0.078,-0.0875,-0.0818,-0.1045,-0.0901,-0.1083,-0.1103,-0.1404,-0.1657,-0.1622,-0.1627,-0.16,0,0]},{"header":{"parameterUnit":"m.s-1","parameterCategory":2,"la1":30.2992,"la2":30.254,"lo1":-89.0895,"lo2":-89.0443,"dy":0.0025,"dx":0.0025,"nx":19,"ny":19,"refTime":"2026-05-05T21:00:00:Z","depth":"4","parameterNumber":3,"parameterNumberName":"V-component_of_CURRENTS"},"data":[0,0,0,-0.0339,-0.0338,-0.0315,-0.0314,-0.0235,-0.0234,0,0,0,0,0,0,0,0,0,0,0,-0.0348,-0.0349,-0.0339,-0.0338,-0.0315,-0.0314,-0.0235,-0.0234,0,0,0,0,0,0,0,0,0,0,0,-0.0348,-0.0349,-0.0349,-0.0338,-0.0315,-0.0314,-0.0235,-0.0263,0,0,0,0,0,0,0,0,0,0,-0.0292,-0.0316,-0.0349,-0.0349,-0.0338,-0.0315,-0.0314,-0.0265,-0.0262,-0.0234,0,-0.0239,0,-0.0236,-0.0229,-0.0228,0,0,0,-0.033,-0.0319,-0.0309,-0.0349,-0.0338,-0.0315,-0.0323,-0.0263,-0.0259,-0.0229,-0.0238,-0.0235,-0.0235,-0.0228,-0.0228,-0.015,-0.015,0,0,-0.0331,-0.0343,-0.0312,-0.0307,-0.0341,-0.0324,-0.0322,-0.0261,-0.0262,-0.0238,-0.0234,-0.0234,-0.0227,-0.0227,-0.0151,-0.015,0,0,0,-0.0341,-0.0344,-0.0337,-0.031,-0.031,-0.0323,-0.0322,-0.0265,-0.0262,-0.0233,-0.0233,-0.0227,-0.0226,-0.0151,-0.015,-0.0245,0,0,0,-0.0341,-0.035,-0.0338,-0.0344,-0.0312,-0.0295,-0.0326,-0.0266,-0.0259,-0.0233,-0.0227,-0.0225,-0.0151,-0.0151,-0.0243,-0.0331,0,0,0,-0.0348,-0.0351,-0.035,-0.0345,-0.0338,-0.0296,-0.029,-0.0265,-0.0259,-0.0228,-0.0225,-0.0151,-0.0151,-0.0241,-0.0325,-0.0414,0,0,0,-0.0356,-0.0361,-0.0351,-0.0356,-0.0338,-0.0322,-0.029,-0.0274,-0.0252,-0.0226,-0.0151,-0.015,-0.024,-0.0322,-0.0409,-0.0366,0,0,0,-0.0365,-0.0362,-0.0364,-0.0355,-0.036,-0.0324,-0.0325,-0.0285,-0.023,-0.0166,-0.0165,-0.0243,-0.0325,-0.0413,-0.0333,0,0,0,0,-0.0368,-0.0377,-0.0374,-0.0378,-0.0358,-0.0372,-0.0316,-0.0292,-0.0249,-0.0216,-0.0206,-0.0255,-0.0308,-0.0266,-0.0148,-0.0148,-0.0148,-0.0148,-0.0148,-0.0401,-0.0397,-0.042,-0.0418,-0.0413,-0.0393,-0.0403,-0.0356,-0.0272,-0.0262,-0.0302,-0.0399,-0.035,-0.0242,-0.0242,-0.0242,-0.0243,-0.0243,-0.0243,-0.0447,-0.0479,-0.0481,-0.0506,-0.0512,-0.0512,-0.0484,-0.045,-0.0454,-0.0351,-0.0396,-0.0329,-0.0252,-0.025,-0.0249,-0.0248,-0.0247,-0.0247,-0.0246,-0.049,-0.0514,-0.0528,-0.0595,-0.0641,-0.0624,-0.0701,-0.065,-0.057,-0.0613,-0.0558,-0.0485,-0.0515,-0.0618,-0.0619,-0.062,-0.062,-0.0621,-0.0621,-0.0547,-0.0564,-0.0662,-0.0705,-0.078,-0.0831,-0.0841,-0.0848,-0.0775,-0.0695,-0.0647,-0.0526,-0.0514,-0.0535,-0.0633,-0.0631,-0.0629,-0.0628,-0.0628,-0.0643,-0.0663,-0.0799,-0.0892,-0.1028,-0.1043,-0.1051,-0.0965,-0.0993,-0.0936,-0.0738,-0.0729,-0.071,-0.0695,-0.0722,-0.0879,-0.0879,-0.0879,0,-0.0736,-0.0745,-0.0942,-0.1091,-0.1198,-0.1177,-0.1166,-0.1109,-0.099,-0.0958,-0.1023,-0.0806,-0.0795,-0.0776,-0.0762,-0.0796,0,0,0,-0.0853,-0.0884,-0.1023,-0.1123,-0.1253,-0.118,-0.1139,-0.1089,-0.0987,-0.0951,-0.0877,-0.0877,-0.077,-0.0668,-0.062,-0.0605,-0.0639,0,0]}]]